Location: Sobotiste
(48.7170°N, 17.4000°E)
Time: 22:31:15
(UTC+02:00)

SEEDS - Pass Details

Date: 20 March 2026
Orbit: 470 x 477 km, 97.8° (Epoch: 21 April)

Event Time Altitude Azimuth Distance (km) Brightness Sun altitude
Rises 04:34:13 0° 24° (NNE) 2,554 ? -13.8°
Reaches altitude 10° 04:36:35 10° 39° (NE) 1,666 ? -13.4°
Maximum altitude 04:39:33 24° 95° (E) 1,024 ? -12.9°
Drops below altitude 10° 04:42:30 10° 152° (SSE) 1,647 ? -12.5°
Sets 04:44:49 0° 166° (SSE) 2,517 ? -12.1°
